This demonstration page uses our WeatherBlox Daily Observations layout. Learn more.

Left ArrowRight Arrow

39.01783, -85.05884

Hourly Observations for April 13, 2020

Temp ( °F °C ) Dew Point ( °F °C ) Humidity (%) Winds ( mph kmh ) Pressure ( in mb ) Visibility ( mi km ) Precip ( " mm )
12:47 am 00:47 Cloudy with Rain 57 14 55 13 94 94 S 6 9 29.41 996 6 10 0.07 1.78
12:52 am 00:52 Cloudy with Heavy Rain 57 13.9 55 12.8 93 93 S 6 9 29.40 996 6 10 0.10 2.54
1:52 am 01:52 Cloudy with Light Rain 58 14.4 56 13.3 93 93 SSW 9 15 29.38 995 8 13 0.20 5.08
2:14 am 02:14 Cloudy 58 14.4 56 13.3 93 93 SSW 7 11 29.38 995 10 16 0.00 0.00
2:52 am 02:52 Cloudy with Light Rain 58 14.4 56 13.3 93 93 WSW 6 9 29.33 993 6 10 0.01 0.25
2:55 am 02:55 Cloudy with Thunderstorms 58 14.4 56 13.3 93 93 SW 9 15 29.35 994 5 8 0.00 0.00
3:03 am 03:03 Cloudy with Thunderstorms 58 14.4 56 13.3 93 93 WSW 12 19 29.37 994 6 10 0.00 0.00
3:11 am 03:11 Cloudy with Strong Thunderstorms 59 15 57 13.9 93 93 SW 12 19 29.36 994 2 3 0.10 2.54
3:13 am 03:13 Cloudy with Strong Thunderstorms 59 15 57 13.9 93 93 SSW 13 20 29.37 995 2 3 0.12 3.05
3:43 am 03:43 Cloudy with Thunderstorms 60 15.6 57 13.9 90 90 SW 12 19 29.39 995 3 5 0.40 10.16
3:50 am 03:50 Cloudy with Thunderstorms 61 16 57 14 88 88 SW 14 22 29.39 995 6 10 0.41 10.41
3:52 am 03:52 Cloudy with Thunderstorms 60 15.6 57 13.9 90 90 WSW 9 15 29.39 995 7 11 0.41 10.41
4:28 am 04:28 Cloudy with Rain 59 15 56 13.3 90 90 WSW 9 15 29.37 995 6 10 0.08 2.03
4:52 am 04:52 Cloudy with Rain 59 15 56 13.3 90 90 SSW 6 9 29.33 993 8 13 0.19 4.83
5:40 am 05:40 Cloudy with Light Rain 58 14.4 56 13.3 93 93 W 8 13 29.35 994 10 16 0.06 1.52
5:52 am 05:52 Cloudy 58 14.4 56 13.3 93 93 WNW 14 22 29.34 994 10 16 0.06 1.52
6:26 am 06:26 Cloudy with Light Rain 57 13.9 54 12.2 90 90 W 17 28 29.38 995 10 16 0.01 0.25
6:52 am 06:52 Cloudy with Light Rain 56 13.3 53 11.7 90 90 WNW 21 33 29.39 995 10 16 0.01 0.25
7:52 am 07:52 Cloudy 56 13.3 52 11.1 87 87 W 17 28 29.45 997 10 16 0.00 0.00
8:52 am 08:52 Cloudy 53 11.7 48 8.9 83 83 WNW 28 44 29.53 1000 10 16 0.00 0.00
9:52 am 09:52 Cloudy 46 7.8 42 5.6 86 86 WNW 24 39 29.64 1004 10 16 0.00 0.00
10:52 am 10:52 Cloudy 42 5.6 38 3.3 85 85 W 29 46 29.75 1007 10 16 N/A
11:52 am 11:52 Cloudy 42 5.6 34 1.1 73 73 W 24 39 29.83 1010 10 16 N/A
12:52 pm 12:52 Cloudy 42 5.6 33 0.6 71 71 W 23 37 29.89 1012 10 16 N/A
1:52 pm 13:52 Cloudy 43 6.1 32 undefined 65 65 WNW 18 30 29.92 1013 10 16 N/A
2:52 pm 14:52 Cloudy 43 6.1 32 undefined 65 65 WNW 21 33 29.97 1015 10 16 N/A
3:24 pm 15:24 Cloudy 43 6.1 32 undefined 65 65 WNW 17 28 30.01 1016 10 16 N/A
3:52 pm 15:52 Cloudy 43 6.1 31 -0.6 63 63 NW 18 30 30.00 1016 10 16 N/A
4:52 pm 16:52 Mostly Cloudy 45 7.2 31 -0.6 58 58 NW 15 24 30.02 1017 10 16 N/A
5:52 pm 17:52 Mostly Cloudy 44 6.7 29 -1.7 55 55 NW 15 24 30.04 1017 10 16 N/A
6:52 pm 18:52 Mostly Cloudy 45 7.2 28 -2.2 52 52 WNW 13 20 30.08 1019 10 16 N/A
7:52 pm 19:52 Partly Cloudy 43 6.1 29 -1.7 58 58 W 6 9 30.09 1019 10 16 N/A
8:52 pm 20:52 Cloudy 42 5.6 29 -1.7 60 60 SW 5 7 30.11 1020 10 16 N/A
9:52 pm 21:52 Cloudy 42 5.6 30 -1.1 62 62 SSW 5 7 30.14 1021 10 16 N/A
10:52 pm 22:52 Cloudy 42 5.6 31 -0.6 65 65 SW 5 7 30.17 1022 10 16 N/A
11:52 pm 23:52 Cloudy 41 5 32 undefined 70 70 W 7 11 30.17 1022 10 16 N/A

Powered by AerisWeather